Home

PKWA Terminal Aerodrome Forecast (TAF)small logo


TAF provided by NWS Guam
2015/02/01 12:42
TAF PKWA 011137Z 0112/0212 07011KT P6SM FEW020 SCT040

      



Site Map | Contact Us | Copyright © 2007 Atmospheric Technology Services Company. All rights reserved.